Hourly Weather Krychaw

Today, 13 August, Thursday

Time Temperature Precipitation Wind Pressure Humidity
00:00 +10°C° 0 mm 3 mps 750 mmHg 92%
01:00 +10°C° 0 mm 3 mps 751 mmHg 93%
02:00 +10°C° 0 mm 2 mps 751 mmHg 97%
03:00 +9°C° 0 mm 2 mps 750 mmHg 97%
04:00 +9°C° 0 mm 2 mps 750 mmHg 97%
05:00 +9°C° 0 mm 2 mps 750 mmHg 97%
06:00 +10°C° 0 mm 2 mps 750 mmHg 92%
07:00 +12°C° 0 mm 3 mps 750 mmHg 88%
08:00 +13°C° 0 mm 3 mps 750 mmHg 82%
09:00 +13°C° 0.1 mm 3 mps 750 mmHg 77%
10:00 +14°C° 0.1 mm 3 mps 750 mmHg 73%
11:00 +15°C° 0.1 mm 4 mps 750 mmHg 69%
12:00 +15°C° 0.1 mm 4 mps 750 mmHg 66%
13:00 +17°C° 0.1 mm 4 mps 750 mmHg 64%
14:00 +17°C° 0 mm 3 mps 750 mmHg 62%
15:00 +17°C° 0 mm 3 mps 750 mmHg 64%
16:00 +16°C° 0 mm 3 mps 750 mmHg 65%
17:00 +16°C° 0 mm 3 mps 749 mmHg 66%
18:00 +15°C° 0 mm 2 mps 750 mmHg 69%
19:00 +14°C° 0 mm 2 mps 750 mmHg 72%
20:00 +13°C° 0 mm 2 mps 750 mmHg 75%
21:00 +13°C° 0 mm 2 mps 750 mmHg 77%
22:00 +12°C° 0 mm 2 mps 750 mmHg 79%
23:00 +10°C° 0 mm 2 mps 750 mmHg 82%

Tomorrow, 14 August, Friday

Time Temperature Precipitation Wind Pressure Humidity
00:00 +9°C° 0 mm 2 mps 750 mmHg 84%
01:00 +8°C° 0 mm 2 mps 750 mmHg 87%
02:00 +8°C° 0 mm 2 mps 750 mmHg 90%
03:00 +8°C° 0 mm 2 mps 750 mmHg 90%
04:00 +7°C° 0 mm 2 mps 750 mmHg 91%
05:00 +7°C° 0 mm 2 mps 751 mmHg 91%
06:00 +9°C° 0 mm 2 mps 751 mmHg 85%
07:00 +12°C° 0 mm 2 mps 751 mmHg 80%
08:00 +13°C° 0 mm 3 mps 751 mmHg 74%
09:00 +14°C° 0 mm 3 mps 751 mmHg 68%
10:00 +16°C° 0 mm 3 mps 751 mmHg 62%
11:00 +18°C° 0 mm 3 mps 751 mmHg 57%
12:00 +18°C° 0 mm 3 mps 751 mmHg 56%
13:00 +19°C° 0 mm 3 mps 751 mmHg 55%
14:00 +19°C° 0 mm 3 mps 751 mmHg 54%
15:00 +19°C° 0 mm 2 mps 750 mmHg 57%
16:00 +18°C° 0 mm 2 mps 750 mmHg 60%
17:00 +18°C° 0 mm 2 mps 750 mmHg 64%
18:00 +17°C° 0 mm 2 mps 750 mmHg 69%
19:00 +15°C° 0 mm 1 mps 751 mmHg 74%
20:00 +13°C° 0 mm 1 mps 751 mmHg 79%
21:00 +13°C° 0 mm 1 mps 751 mmHg 80%
22:00 +12°C° 0 mm 1 mps 751 mmHg 82%
23:00 +12°C° 0 mm 1 mps 751 mmHg 83%

Day after tomorrow, 15 August, Saturday

Time Temperature Precipitation Wind Pressure Humidity
00:00 +12°C° 0 mm 1 mps 751 mmHg 85%
01:00 +11°C° 0 mm 1 mps 751 mmHg 86%
02:00 +11°C° 0 mm 1 mps 752 mmHg 88%
03:00 +11°C° 0 mm 1 mps 751 mmHg 89%
04:00 +11°C° 0 mm 1 mps 751 mmHg 89%
05:00 +10°C° 0 mm 1 mps 751 mmHg 90%
06:00 +12°C° 0 mm 1 mps 751 mmHg 85%
07:00 +14°C° 0 mm 1 mps 752 mmHg 80%
08:00 +16°C° 0 mm 1 mps 752 mmHg 74%
09:00 +18°C° 0 mm 2 mps 752 mmHg 70%
10:00 +19°C° 0 mm 2 mps 752 mmHg 66%
11:00 +20°C° 0 mm 2 mps 752 mmHg 61%
12:00 +21°C° 0.1 mm 2 mps 751 mmHg 61%
13:00 +21°C° 0.1 mm 2 mps 751 mmHg 61%
14:00 +23°C° 0.1 mm 2 mps 751 mmHg 60%
15:00 +21°C° 0.2 mm 2 mps 751 mmHg 65%
16:00 +21°C° 0.2 mm 2 mps 750 mmHg 69%
17:00 +21°C° 0.2 mm 2 mps 750 mmHg 73%
18:00 +19°C° 0.2 mm 2 mps 750 mmHg 78%
19:00 +18°C° 0.2 mm 2 mps 750 mmHg 83%
20:00 +16°C° 0.2 mm 2 mps 750 mmHg 88%
21:00 +16°C° 0 mm 2 mps 750 mmHg 89%
22:00 +15°C° 0 mm 2 mps 750 mmHg 91%
23:00 +15°C° 0 mm 2 mps 750 mmHg 93%

16 August, Sunday

Time Temperature Precipitation Wind Pressure Humidity
00:00 +15°C° 0 mm 2 mps 750 mmHg 93%
01:00 +14°C° 0 mm 2 mps 750 mmHg 94%
02:00 +14°C° 0 mm 2 mps 750 mmHg 94%
03:00 +14°C° 0 mm 2 mps 750 mmHg 94%
04:00 +14°C° 0 mm 2 mps 750 mmHg 95%
05:00 +14°C° 0 mm 2 mps 749 mmHg 95%
06:00 +14°C° 0 mm 3 mps 750 mmHg 92%
07:00 +17°C° 0 mm 3 mps 750 mmHg 89%
08:00 +18°C° 0 mm 3 mps 750 mmHg 86%
09:00 +20°C° 0.2 mm 3 mps 750 mmHg 81%
10:00 +21°C° 0.2 mm 4 mps 750 mmHg 76%
11:00 +23°C° 0.2 mm 4 mps 750 mmHg 72%
12:00 +23°C° 0.4 mm 4 mps 750 mmHg 73%
13:00 +23°C° 0.4 mm 4 mps 750 mmHg 74%
14:00 +24°C° 0.4 mm 3 mps 750 mmHg 75%
15:00 +24°C° 0.5 mm 3 mps 749 mmHg 75%
16:00 +22°C° 0.5 mm 3 mps 749 mmHg 76%
17:00 +22°C° 0.5 mm 3 mps 749 mmHg 77%
18:00 +21°C° 0.1 mm 3 mps 749 mmHg 81%
19:00 +20°C° 0.1 mm 2 mps 749 mmHg 85%
20:00 +18°C° 0.1 mm 2 mps 749 mmHg 88%
21:00 +18°C° 0 mm 2 mps 749 mmHg 89%
22:00 +17°C° 0 mm 2 mps 749 mmHg 90%
23:00 +17°C° 0 mm 2 mps 749 mmHg 90%

17 August, Monday

Time Temperature Precipitation Wind Pressure Humidity
00:00 +16°C° 0 mm 2 mps 749 mmHg 90%
01:00 +16°C° 0 mm 2 mps 749 mmHg 91%
02:00 +15°C° 0 mm 2 mps 749 mmHg 91%
03:00 +15°C° 0 mm 2 mps 749 mmHg 91%
04:00 +15°C° 0 mm 2 mps 749 mmHg 91%
05:00 +15°C° 0 mm 2 mps 749 mmHg 91%
06:00 +16°C° 0 mm 2 mps 749 mmHg 87%
07:00 +18°C° 0 mm 2 mps 749 mmHg 82%
08:00 +19°C° 0 mm 2 mps 749 mmHg 78%
09:00 +21°C° 0 mm 2 mps 749 mmHg 72%
10:00 +22°C° 0 mm 3 mps 749 mmHg 67%
11:00 +25°C° 0 mm 3 mps 749 mmHg 61%
12:00 +25°C° 0 mm 3 mps 748 mmHg 59%
13:00 +25°C° 0 mm 3 mps 748 mmHg 56%
14:00 +26°C° 0 mm 3 mps 748 mmHg 54%
15:00 +26°C° 0 mm 2 mps 747 mmHg 57%
16:00 +25°C° 0 mm 2 mps 747 mmHg 61%
17:00 +25°C° 0 mm 2 mps 746 mmHg 65%
18:00 +23°C° 0 mm 1 mps 746 mmHg 68%
19:00 +21°C° 0 mm 1 mps 746 mmHg 71%
20:00 +19°C° 0 mm 1 mps 746 mmHg 74%
21:00 +19°C° 0 mm 1 mps 746 mmHg 74%
22:00 +18°C° 0 mm 1 mps 746 mmHg 73%
23:00 +18°C° 0 mm 1 mps 745 mmHg 73%

18 August, Tuesday

Time Temperature Precipitation Wind Pressure Humidity
00:00 +18°C° 0 mm 1 mps 745 mmHg 73%
01:00 +18°C° 0 mm 1 mps 745 mmHg 73%
02:00 +17°C° 0 mm 2 mps 745 mmHg 74%
03:00 +18°C° 0.1 mm 1 mps 744 mmHg 78%
04:00 +18°C° 0.1 mm 1 mps 744 mmHg 82%
05:00 +16°C° 0.1 mm 1 mps 743 mmHg 86%
06:00 +18°C° 0 mm 1 mps 743 mmHg 84%
07:00 +19°C° 0 mm 1 mps 743 mmHg 82%
08:00 +20°C° 0 mm 1 mps 743 mmHg 80%
09:00 +21°C° 0.1 mm 1 mps 743 mmHg 76%
10:00 +22°C° 0.1 mm 1 mps 743 mmHg 73%
11:00 +23°C° 0.1 mm 1 mps 743 mmHg 69%
12:00 +23°C° 0.2 mm 1 mps 743 mmHg 70%
13:00 +23°C° 0.2 mm 1 mps 743 mmHg 72%
14:00 +23°C° 0.2 mm 1 mps 743 mmHg 73%
15:00 +23°C° 0.2 mm 2 mps 743 mmHg 74%
16:00 +23°C° 0.2 mm 2 mps 743 mmHg 75%
17:00 +23°C° 0.2 mm 2 mps 743 mmHg 76%
18:00 +20°C° 0 mm 2 mps 743 mmHg 81%
19:00 +19°C° 0 mm 2 mps 743 mmHg 86%
20:00 +17°C° 0 mm 2 mps 743 mmHg 91%
21:00 +17°C° 0 mm 2 mps 743 mmHg 91%
22:00 +16°C° 0 mm 2 mps 744 mmHg 91%
23:00 +16°C° 0 mm 2 mps 744 mmHg 90%
Show more